• In Deutschland
  • Länderverzeichnis
  • Für 7 Tage
  • Wassertemperatur
  • Satellitenkarten
  • Wetterkarte
  • Widgets
  • user-avatar
    Anmelden

    Stündliche Wetter Ust-Barguzin

    Heute, 21 September, Freitag

    Zeit Temperatur Niederschläge Wind Luftdruck Luftfeuchtigkeit
    00:00 +3°C° 0 mm 4 m/S 719 mmHg 91%
    01:00 +3°C° 0 mm 3 m/S 719 mmHg 92%
    02:00 +3°C° 0.1 mm 3 m/S 719 mmHg 92%
    03:00 +3°C° 0.1 mm 3 m/S 720 mmHg 92%
    04:00 +3°C° 0.1 mm 3 m/S 720 mmHg 92%
    05:00 +3°C° 0.1 mm 3 m/S 720 mmHg 91%
    06:00 +3°C° 0.1 mm 3 m/S 720 mmHg 90%
    07:00 +4°C° 0.1 mm 3 m/S 721 mmHg 89%
    08:00 +4°C° 0.2 mm 3 m/S 721 mmHg 86%
    09:00 +5°C° 0.2 mm 3 m/S 721 mmHg 84%
    10:00 +5°C° 0.2 mm 3 m/S 722 mmHg 81%
    11:00 +5°C° 0.2 mm 3 m/S 722 mmHg 81%
    12:00 +7°C° 0.2 mm 3 m/S 722 mmHg 81%
    13:00 +8°C° 0 mm 3 m/S 721 mmHg 74%
    14:00 +7°C° 0.4 mm 3 m/S 722 mmHg 78%
    15:00 +7°C° 0.4 mm 2 m/S 722 mmHg 81%
    16:00 +7°C° 0.4 mm 2 m/S 722 mmHg 85%
    17:00 +7°C° 0.3 mm 1 m/S 722 mmHg 87%
    18:00 +6°C° 0.3 mm 1 m/S 723 mmHg 90%
    19:00 +6°C° 0.3 mm 1 m/S 723 mmHg 93%
    20:00 +5°C° 0 mm 1 m/S 723 mmHg 94%
    21:00 +5°C° 0 mm 1 m/S 724 mmHg 94%
    22:00 +4°C° 0 mm 1 m/S 724 mmHg 95%
    23:00 +4°C° 0 mm 1 m/S 724 mmHg 95%

    Morgen, 22 September, Samstag

    Zeit Temperatur Niederschläge Wind Luftdruck Luftfeuchtigkeit
    00:00 +4°C° 0 mm 1 m/S 725 mmHg 95%
    01:00 +3°C° 0 mm 1 m/S 725 mmHg 95%
    02:00 +3°C° 0 mm 1 m/S 725 mmHg 95%
    03:00 +3°C° 0 mm 1 m/S 726 mmHg 95%
    04:00 +3°C° 0 mm 1 m/S 726 mmHg 95%
    05:00 +4°C° 0 mm 1 m/S 726 mmHg 93%
    06:00 +5°C° 0 mm 1 m/S 727 mmHg 92%
    07:00 +5°C° 0 mm 1 m/S 727 mmHg 90%
    08:00 +7°C° 0 mm 1 m/S 727 mmHg 84%
    09:00 +9°C° 0 mm 1 m/S 727 mmHg 79%
    10:00 +11°C° 0 mm 1 m/S 727 mmHg 73%
    11:00 +12°C° 0 mm 1 m/S 727 mmHg 70%
    12:00 +12°C° 0 mm 2 m/S 727 mmHg 68%
    13:00 +13°C° 0 mm 2 m/S 726 mmHg 65%
    14:00 +12°C° 0 mm 2 m/S 726 mmHg 67%
    15:00 +12°C° 0 mm 1 m/S 726 mmHg 69%
    16:00 +11°C° 0 mm 1 m/S 726 mmHg 70%
    17:00 +9°C° 0 mm 1 m/S 726 mmHg 77%
    18:00 +7°C° 0 mm 1 m/S 727 mmHg 83%
    19:00 +4°C° 0 mm 0 m/S 727 mmHg 89%
    20:00 +4°C° 0 mm 0 m/S 727 mmHg 90%
    21:00 +4°C° 0 mm 0 m/S 727 mmHg 90%
    22:00 +4°C° 0 mm 1 m/S 727 mmHg 90%
    23:00 +4°C° 0 mm 1 m/S 727 mmHg 90%

    übermorgen, 23 September, Sonntag

    Zeit Temperatur Niederschläge Wind Luftdruck Luftfeuchtigkeit
    00:00 +4°C° 0 mm 1 m/S 727 mmHg 89%
    01:00 +4°C° 0 mm 1 m/S 727 mmHg 89%
    02:00 +4°C° 0 mm 1 m/S 727 mmHg 88%
    03:00 +4°C° 0 mm 1 m/S 727 mmHg 88%
    04:00 +4°C° 0 mm 1 m/S 727 mmHg 88%
    05:00 +5°C° 0 mm 1 m/S 727 mmHg 84%
    06:00 +6°C° 0 mm 1 m/S 727 mmHg 80%
    07:00 +7°C° 0 mm 1 m/S 727 mmHg 77%
    08:00 +9°C° 0 mm 1 m/S 727 mmHg 70%
    09:00 +12°C° 0 mm 1 m/S 727 mmHg 62%
    10:00 +14°C° 0 mm 1 m/S 727 mmHg 55%
    11:00 +15°C° 0 mm 1 m/S 726 mmHg 52%
    12:00 +16°C° 0 mm 1 m/S 726 mmHg 49%
    13:00 +18°C° 0 mm 1 m/S 725 mmHg 47%
    14:00 +16°C° 0 mm 1 m/S 725 mmHg 49%
    15:00 +16°C° 0 mm 2 m/S 725 mmHg 52%
    16:00 +15°C° 0 mm 2 m/S 724 mmHg 55%
    17:00 +13°C° 0 mm 2 m/S 724 mmHg 62%
    18:00 +9°C° 0 mm 2 m/S 724 mmHg 69%
    19:00 +7°C° 0 mm 2 m/S 725 mmHg 77%
    20:00 +7°C° 0 mm 2 m/S 725 mmHg 78%
    21:00 +6°C° 0 mm 2 m/S 725 mmHg 79%
    22:00 +6°C° 0 mm 2 m/S 725 mmHg 80%
    23:00 +6°C° 0 mm 2 m/S 724 mmHg 80%

    24 September, Montag

    Zeit Temperatur Niederschläge Wind Luftdruck Luftfeuchtigkeit
    00:00 +5°C° 0 mm 2 m/S 724 mmHg 81%
    01:00 +5°C° 0 mm 2 m/S 724 mmHg 82%
    02:00 +5°C° 0 mm 2 m/S 724 mmHg 83%
    03:00 +5°C° 0 mm 2 m/S 724 mmHg 84%
    04:00 +4°C° 0 mm 2 m/S 723 mmHg 85%
    05:00 +5°C° 0 mm 2 m/S 724 mmHg 82%
    06:00 +6°C° 0 mm 2 m/S 724 mmHg 79%
    07:00 +7°C° 0 mm 2 m/S 724 mmHg 76%
    08:00 +10°C° 0 mm 2 m/S 723 mmHg 68%
    09:00 +13°C° 0 mm 2 m/S 723 mmHg 60%
    10:00 +15°C° 0 mm 2 m/S 723 mmHg 52%
    11:00 +16°C° 0 mm 2 m/S 722 mmHg 49%
    12:00 +17°C° 0 mm 2 m/S 722 mmHg 46%
    13:00 +18°C° 0 mm 2 m/S 721 mmHg 42%
    14:00 +17°C° 0 mm 2 m/S 721 mmHg 45%
    15:00 +17°C° 0 mm 2 m/S 721 mmHg 48%
    16:00 +16°C° 0 mm 2 m/S 721 mmHg 51%
    17:00 +14°C° 0 mm 2 m/S 721 mmHg 58%
    18:00 +10°C° 0 mm 2 m/S 721 mmHg 65%
    19:00 +8°C° 0 mm 2 m/S 721 mmHg 71%
    20:00 +8°C° 0 mm 2 m/S 721 mmHg 72%
    21:00 +7°C° 0 mm 2 m/S 721 mmHg 73%
    22:00 +8°C° 0 mm 1 m/S 721 mmHg 74%
    23:00 +6°C° 0 mm 2 m/S 721 mmHg 74%

    25 September, Dienstag

    Zeit Temperatur Niederschläge Wind Luftdruck Luftfeuchtigkeit
    00:00 +6°C° 0 mm 2 m/S 721 mmHg 74%
    01:00 +6°C° 0 mm 2 m/S 721 mmHg 74%
    02:00 +6°C° 0 mm 2 m/S 721 mmHg 75%
    03:00 +5°C° 0 mm 2 m/S 721 mmHg 75%
    04:00 +5°C° 0 mm 2 m/S 721 mmHg 76%
    05:00 +6°C° 0 mm 2 m/S 721 mmHg 74%
    06:00 +7°C° 0 mm 2 m/S 721 mmHg 72%
    07:00 +8°C° 0 mm 2 m/S 721 mmHg 70%
    08:00 +10°C° 0 mm 2 m/S 721 mmHg 63%
    09:00 +14°C° 0 mm 2 m/S 720 mmHg 56%
    10:00 +16°C° 0 mm 1 m/S 720 mmHg 50%
    11:00 +17°C° 0 mm 2 m/S 720 mmHg 47%
    12:00 +18°C° 0 mm 2 m/S 719 mmHg 45%
    13:00 +19°C° 0 mm 2 m/S 719 mmHg 43%
    14:00 +18°C° 0 mm 2 m/S 719 mmHg 46%
    15:00 +18°C° 0 mm 2 m/S 718 mmHg 49%
    16:00 +17°C° 0 mm 3 m/S 718 mmHg 52%
    17:00 +14°C° 0 mm 3 m/S 718 mmHg 59%
    18:00 +12°C° 0 mm 3 m/S 718 mmHg 66%
    19:00 +10°C° 0 mm 3 m/S 718 mmHg 73%
    20:00 +9°C° 0 mm 3 m/S 718 mmHg 74%
    21:00 +9°C° 0 mm 3 m/S 718 mmHg 75%
    22:00 +9°C° 0 mm 3 m/S 718 mmHg 76%
    23:00 +9°C° 0 mm 3 m/S 718 mmHg 77%

    26 September, Mittwoch

    Zeit Temperatur Niederschläge Wind Luftdruck Luftfeuchtigkeit
    00:00 +8°C° 0 mm 2 m/S 718 mmHg 77%
    01:00 +8°C° 0 mm 2 m/S 718 mmHg 77%
    02:00 +8°C° 0 mm 2 m/S 717 mmHg 79%
    03:00 +8°C° 0 mm 2 m/S 717 mmHg 80%
    04:00 +8°C° 0 mm 2 m/S 717 mmHg 82%
    05:00 +9°C° 0.1 mm 2 m/S 717 mmHg 82%
    06:00 +10°C° 0.1 mm 1 m/S 718 mmHg 82%
    07:00 +11°C° 0.1 mm 1 m/S 718 mmHg 82%
    08:00 +12°C° 0.1 mm 1 m/S 717 mmHg 79%
    09:00 +13°C° 0.1 mm 1 m/S 717 mmHg 76%
    10:00 +14°C° 0.1 mm 1 m/S 717 mmHg 73%
    11:00 +14°C° 0.1 mm 1 m/S 717 mmHg 73%
    12:00 +14°C° 0.1 mm 1 m/S 717 mmHg 73%
    13:00 +15°C° 0.1 mm 1 m/S 716 mmHg 72%
    14:00 +14°C° 0.2 mm 1 m/S 716 mmHg 77%
    15:00 +13°C° 0.2 mm 1 m/S 716 mmHg 82%
    16:00 +12°C° 0.2 mm 1 m/S 717 mmHg 86%
    17:00 +11°C° 0.3 mm 1 m/S 717 mmHg 89%
    18:00 +10°C° 0.3 mm 1 m/S 717 mmHg 91%
    19:00 +9°C° 0.3 mm 2 m/S 717 mmHg 94%
    20:00 +8°C° 0.3 mm 2 m/S 717 mmHg 94%
    21:00 +8°C° 0.3 mm 2 m/S 717 mmHg 95%
    22:00 +8°C° 0.3 mm 2 m/S 717 mmHg 95%
    23:00 +7°C° 0.1 mm 2 m/S 717 mmHg 95%
    Mehr zeigen